[[{"header":{"parameterUnit":"m.s-1","parameterCategory":2,"la1":30.2992,"la2":30.254,"lo1":-89.0895,"lo2":-89.0443,"dy":0.0025,"dx":0.0025,"nx":19,"ny":19,"refTime":"2026-05-09T21:00:00:Z","depth":"0","parameterNumber":2,"parameterNumberName":"U-component_of_CURRENTS"},"data":[0,0,0,0.228,0.2281,0.2304,0.2304,0.232,0.232,0,0,0,0,0,0,0,0,0,0,0,0.2262,0.2262,0.228,0.2281,0.2304,0.2304,0.232,0.232,0,0,0,0,0,0,0,0,0,0,0,0.2262,0.2262,0.2263,0.2281,0.2304,0.2304,0.232,0.2303,0,0,0,0,0,0,0,0,0,0,0.2281,0.2259,0.2262,0.2263,0.2281,0.2304,0.2304,0.2302,0.2304,0.2309,0,0.2314,0,0.2326,0.2322,0.2322,0,0,0,0.227,0.2258,0.2279,0.2263,0.2281,0.2304,0.2291,0.2303,0.2305,0.2311,0.2314,0.2315,0.2327,0.2322,0.2322,0.2313,0.2313,0,0,0.2269,0.2252,0.2278,0.2281,0.229,0.229,0.2291,0.2305,0.2298,0.2314,0.2316,0.2327,0.2322,0.2323,0.2313,0.2313,0,0,0,0.2272,0.225,0.2271,0.228,0.229,0.2291,0.2293,0.2297,0.2309,0.2316,0.2327,0.2322,0.2323,0.2314,0.2313,0.2279,0,0,0,0.2271,0.2254,0.2271,0.2259,0.229,0.2294,0.2285,0.2307,0.231,0.2327,0.2322,0.2323,0.2314,0.2314,0.2281,0.2255,0,0,0,0.2261,0.2252,0.2259,0.2258,0.2276,0.2294,0.2305,0.2308,0.2317,0.2322,0.2323,0.2314,0.2314,0.2282,0.2258,0.2261,0,0,0,0.2237,0.2235,0.2258,0.2253,0.2276,0.2275,0.2305,0.2298,0.2297,0.2323,0.2314,0.2313,0.2283,0.226,0.2262,0.2279,0.2274,0,0,0.2222,0.2232,0.2229,0.2252,0.2238,0.2271,0.2251,0.2265,0.229,0.2308,0.2308,0.228,0.2258,0.2261,0.2239,0.2235,0,0,0,0.2216,0.221,0.2209,0.2209,0.2221,0.2214,0.2236,0.225,0.2263,0.229,0.2276,0.2263,0.2266,0.2279,0.2275,0.2277,0.231,0.231,0.231,0.2154,0.2171,0.2153,0.2166,0.2163,0.2174,0.2175,0.2199,0.2231,0.223,0.2232,0.2204,0.2216,0.2214,0.2215,0.2234,0.2234,0.2234,0.2234,0.2115,0.2096,0.2114,0.2104,0.2106,0.2096,0.2124,0.2146,0.2168,0.2193,0.2199,0.2237,0.2209,0.2211,0.2232,0.2232,0.2232,0.2233,0.2233,0.2065,0.2054,0.2065,0.2048,0.203,0.2044,0.2036,0.2079,0.213,0.213,0.2173,0.2174,0.2181,0.2147,0.2147,0.2147,0.2147,0.2147,0.2147,0.1995,0.2008,0.1979,0.1977,0.1956,0.1949,0.1984,0.2006,0.2078,0.2129,0.213,0.2166,0.2178,0.2187,0.2145,0.2145,0.2145,0.2146,0.2146,0.1897,0.1919,0.1878,0.1858,0.1818,0.1804,0.1871,0.1953,0.2,0.2041,0.2137,0.214,0.2156,0.2159,0.2167,0.2123,0.2123,0.2123,0.2123,0.1818,0.1831,0.1765,0.1719,0.1687,0.1719,0.1737,0.185,0.2019,0.2104,0.2127,0.2147,0.2148,0.2164,0.2167,0.2177,0.2135,0.2135,0.2135,0.173,0.1739,0.1663,0.1647,0.1617,0.1631,0.1658,0.1767,0.2026,0.2135,0.2122,0.2121,0.215,0.2151,0.218,0.2184,0.22,0,0]},{"header":{"parameterUnit":"m.s-1","parameterCategory":2,"la1":30.2992,"la2":30.254,"lo1":-89.0895,"lo2":-89.0443,"dy":0.0025,"dx":0.0025,"nx":19,"ny":19,"refTime":"2026-05-09T21:00:00:Z","depth":"0","parameterNumber":3,"parameterNumberName":"V-component_of_CURRENTS"},"data":[0,0,0,-0.0985,-0.0987,-0.1059,-0.106,-0.1056,-0.1055,0,0,0,0,0,0,0,0,0,0,0,-0.0954,-0.0954,-0.0985,-0.0987,-0.1059,-0.106,-0.1056,-0.1055,0,0,0,0,0,0,0,0,0,0,0,-0.0954,-0.0954,-0.0955,-0.0987,-0.1059,-0.106,-0.1056,-0.1025,0,0,0,0,0,0,0,0,0,0,-0.0966,-0.0943,-0.0954,-0.0955,-0.0988,-0.1059,-0.106,-0.1024,-0.1027,-0.0996,0,-0.1007,0,-0.1032,-0.1053,-0.1053,0,0,0,-0.0986,-0.0941,-0.0971,-0.0955,-0.0988,-0.1059,-0.1026,-0.1027,-0.1029,-0.0998,-0.1008,-0.1008,-0.1032,-0.1053,-0.1053,-0.0949,-0.0948,0,0,-0.0982,-0.0955,-0.0969,-0.0972,-0.1005,-0.1024,-0.1029,-0.1029,-0.1022,-0.1008,-0.1009,-0.1032,-0.1053,-0.1052,-0.095,-0.0949,0,0,0,-0.0971,-0.0952,-0.0984,-0.0971,-0.0993,-0.1026,-0.1031,-0.1022,-0.1036,-0.1009,-0.1032,-0.1052,-0.1052,-0.0951,-0.0949,-0.0899,0,0,0,-0.0969,-0.0947,-0.0982,-0.0965,-0.0994,-0.1019,-0.1024,-0.1036,-0.1037,-0.1032,-0.1052,-0.1052,-0.0952,-0.095,-0.0902,-0.0863,0,0,0,-0.0951,-0.0945,-0.0955,-0.0964,-0.0999,-0.1021,-0.1035,-0.1037,-0.105,-0.1053,-0.1052,-0.0952,-0.095,-0.0905,-0.0868,-0.0819,0,0,0,-0.0918,-0.0922,-0.0954,-0.0956,-0.0998,-0.1007,-0.1035,-0.1037,-0.1035,-0.1052,-0.0952,-0.0949,-0.0906,-0.0872,-0.0822,-0.0768,-0.0747,0,0,-0.0905,-0.092,-0.092,-0.0951,-0.0946,-0.0997,-0.0961,-0.0976,-0.0989,-0.0947,-0.0945,-0.0901,-0.0869,-0.082,-0.0648,-0.0631,0,0,0,-0.0904,-0.0902,-0.0905,-0.0911,-0.093,-0.0906,-0.0938,-0.0931,-0.0901,-0.098,-0.0873,-0.0853,-0.0824,-0.0798,-0.0784,-0.0676,-0.094,-0.094,-0.094,-0.0837,-0.0857,-0.0838,-0.0851,-0.0843,-0.0841,-0.0817,-0.0804,-0.0843,-0.0807,-0.0792,-0.0689,-0.0659,-0.0648,-0.0537,-0.0777,-0.0777,-0.0777,-0.0777,-0.0799,-0.0782,-0.0782,-0.0776,-0.0748,-0.072,-0.0685,-0.0699,-0.065,-0.0699,-0.0675,-0.072,-0.0629,-0.0516,-0.0773,-0.0774,-0.0774,-0.0775,-0.0775,-0.0749,-0.074,-0.0745,-0.0718,-0.0664,-0.0646,-0.0577,-0.0579,-0.0584,-0.0557,-0.054,-0.0541,-0.046,-0.0557,-0.0556,-0.0556,-0.0555,-0.0555,-0.0555,-0.0693,-0.0695,-0.0673,-0.0654,-0.0621,-0.0572,-0.0519,-0.0483,-0.0446,-0.0454,-0.0454,-0.0388,-0.0621,-0.0651,-0.0549,-0.055,-0.0551,-0.0551,-0.0552,-0.0631,-0.064,-0.0606,-0.0581,-0.0516,-0.0424,-0.0411,-0.0319,-0.0299,-0.0264,-0.0193,-0.0398,-0.0406,-0.0418,-0.0441,-0.0291,-0.0291,-0.0291,-0.0291,-0.0577,-0.0585,-0.0528,-0.0477,-0.0412,-0.0343,-0.0169,-0.0094,-0.0044,-0.0,-0.0024,-0.005,-0.0066,-0.0056,-0.0076,-0.0093,0.0142,0.0143,0.0144,-0.0525,-0.0518,-0.046,-0.0427,-0.0355,-0.0233,-0.001,0.0224,0.0241,0.017,0.0124,0.0106,0.007,0.0037,0.0045,0.0009,-0.0024,0,0]}],[{"header":{"parameterUnit":"m.s-1","parameterCategory":2,"la1":30.2992,"la2":30.254,"lo1":-89.0895,"lo2":-89.0443,"dy":0.0025,"dx":0.0025,"nx":19,"ny":19,"refTime":"2026-05-09T21:00:00:Z","depth":"2","parameterNumber":2,"parameterNumberName":"U-component_of_CURRENTS"},"data":[0,0,0,0.1491,0.1492,0.1527,0.1527,0.1586,0.1587,0,0,0,0,0,0,0,0,0,0,0,0.1484,0.1485,0.1491,0.1492,0.1527,0.1527,0.1586,0.1587,0,0,0,0,0,0,0,0,0,0,0,0.1484,0.1484,0.1485,0.1492,0.1527,0.1527,0.1586,0.1554,0,0,0,0,0,0,0,0,0,0,0.1518,0.1518,0.1484,0.1485,0.1492,0.1527,0.1527,0.1553,0.1556,0.1576,0,0.1592,0,0.1592,0.1592,0.1592,0,0,0,0.1486,0.1514,0.1519,0.1485,0.1493,0.1527,0.1509,0.1555,0.1559,0.1581,0.1593,0.1594,0.1593,0.1592,0.1593,0.1702,0.1703,0,0,0.1484,0.1493,0.1516,0.1522,0.1516,0.1508,0.1511,0.1557,0.1571,0.1593,0.1596,0.1594,0.1593,0.1593,0.1702,0.1702,0,0,0,0.1482,0.1492,0.1495,0.152,0.1526,0.151,0.1512,0.1569,0.1569,0.1596,0.1595,0.1593,0.1594,0.1701,0.1702,0.1739,0,0,0,0.1481,0.1492,0.1495,0.1501,0.1526,0.1548,0.1523,0.1566,0.1571,0.1595,0.1593,0.1595,0.17,0.1701,0.1736,0.1736,0,0,0,0.148,0.1491,0.1498,0.1501,0.1518,0.1547,0.1549,0.1566,0.157,0.1592,0.1595,0.17,0.1701,0.1734,0.1733,0.1775,0,0,0,0.1483,0.1494,0.1499,0.1514,0.1518,0.1536,0.1549,0.1577,0.1598,0.1593,0.17,0.1702,0.1733,0.1731,0.1772,0.165,0.1651,0,0,0.1491,0.1496,0.1501,0.1506,0.1519,0.153,0.1571,0.161,0.163,0.1683,0.1686,0.1737,0.1733,0.1774,0.1741,0.1739,0,0,0,0.1499,0.1508,0.1512,0.1526,0.1537,0.1575,0.1607,0.1641,0.1713,0.1651,0.1759,0.1755,0.178,0.1702,0.1701,0.1709,0.1709,0.1709,0.1709,0.1525,0.1522,0.1532,0.1542,0.1566,0.1617,0.1665,0.1725,0.1736,0.179,0.1802,0.1879,0.1798,0.1795,0.183,0.183,0.183,0.183,0.183,0.1532,0.1532,0.1549,0.1561,0.1602,0.1648,0.1736,0.1777,0.1874,0.1863,0.1886,0.1765,0.1795,0.1834,0.1833,0.1833,0.1832,0.1832,0.1832,0.1539,0.1534,0.1552,0.1574,0.1621,0.1675,0.1737,0.1817,0.1898,0.194,0.1862,0.1859,0.1886,0.1959,0.196,0.196,0.196,0.196,0.196,0.1533,0.1543,0.1559,0.1586,0.1603,0.1646,0.1745,0.1801,0.1861,0.1886,0.1885,0.1922,0.1918,0.1895,0.1963,0.1963,0.1962,0.1962,0.1962,0.1526,0.1543,0.155,0.1566,0.158,0.1564,0.1657,0.1711,0.1798,0.1808,0.186,0.1861,0.1836,0.1834,0.181,0.1853,0.1853,0.1853,0.1853,0.1525,0.1532,0.1536,0.1531,0.1522,0.1521,0.1446,0.1388,0.1512,0.1494,0.1509,0.1429,0.1442,0.139,0.1399,0.1363,0.129,0.1288,0.1287,0.1525,0.1523,0.1517,0.1505,0.1481,0.1443,0.1266,0.1037,0.1065,0.126,0.1355,0.1826,0.1747,0.1752,0.1702,0.1705,0.166,0,0]},{"header":{"parameterUnit":"m.s-1","parameterCategory":2,"la1":30.2992,"la2":30.254,"lo1":-89.0895,"lo2":-89.0443,"dy":0.0025,"dx":0.0025,"nx":19,"ny":19,"refTime":"2026-05-09T21:00:00:Z","depth":"2","parameterNumber":3,"parameterNumberName":"V-component_of_CURRENTS"},"data":[0,0,0,0.0187,0.0186,0.0109,0.0109,0.0083,0.0083,0,0,0,0,0,0,0,0,0,0,0,0.0207,0.0207,0.0188,0.0186,0.0109,0.0109,0.0083,0.0083,0,0,0,0,0,0,0,0,0,0,0,0.0207,0.0207,0.0206,0.0186,0.0109,0.0108,0.0083,0.0121,0,0,0,0,0,0,0,0,0,0,0.0186,0.019,0.0207,0.0206,0.0185,0.0109,0.0108,0.0122,0.0119,0.0142,0,0.0126,0,0.0113,0.0084,0.0084,0,0,0,0.0177,0.0193,0.0182,0.0206,0.0185,0.0109,0.0141,0.0119,0.0116,0.0138,0.0126,0.0125,0.0113,0.0084,0.0084,0.0171,0.0172,0,0,0.0181,0.0186,0.0184,0.0179,0.0162,0.0144,0.0139,0.0116,0.0108,0.0126,0.0124,0.0112,0.0084,0.0084,0.017,0.0171,0,0,0,0.02,0.0189,0.0176,0.0181,0.0166,0.0142,0.0136,0.0109,0.0107,0.0123,0.0112,0.0084,0.0084,0.0169,0.0171,0.0225,0,0,0,0.0202,0.0201,0.0178,0.0179,0.0165,0.0125,0.0129,0.0108,0.0105,0.0112,0.0084,0.0084,0.0168,0.017,0.0221,0.0263,0,0,0,0.0211,0.0201,0.0193,0.018,0.0152,0.0125,0.012,0.0106,0.0099,0.0084,0.0084,0.0168,0.017,0.0218,0.0257,0.0333,0,0,0,0.0218,0.0223,0.0193,0.0202,0.0153,0.0169,0.012,0.0105,0.0094,0.0084,0.0168,0.017,0.0217,0.0254,0.0329,0.0443,0.0471,0,0,0.0238,0.0225,0.0236,0.0208,0.0238,0.0178,0.0222,0.0168,0.014,0.0177,0.0178,0.0222,0.0257,0.0333,0.0562,0.0586,0,0,0,0.0253,0.0258,0.0263,0.0266,0.0265,0.028,0.023,0.0228,0.0228,0.0144,0.0249,0.027,0.0316,0.0376,0.0397,0.018,0.018,0.018,0.018,0.0282,0.0292,0.0323,0.0337,0.0349,0.0347,0.0367,0.0362,0.0302,0.0318,0.0333,0.0456,0.0522,0.0538,0.0345,0.0346,0.0346,0.0346,0.0346,0.0337,0.0367,0.0376,0.0401,0.0424,0.0448,0.0492,0.0461,0.0513,0.0432,0.0473,0.0454,0.0564,0.0351,0.035,0.0349,0.0349,0.0349,0.0348,0.0372,0.0394,0.0388,0.0433,0.0474,0.0492,0.0586,0.0582,0.0574,0.0614,0.0669,0.0669,0.0493,0.0613,0.0613,0.0614,0.0614,0.0615,0.0615,0.0412,0.0421,0.0445,0.0475,0.05,0.0556,0.0625,0.07,0.0775,0.0767,0.0768,0.0547,0.0538,0.051,0.0623,0.0622,0.0621,0.062,0.0619,0.0486,0.0467,0.051,0.053,0.0605,0.0724,0.0776,0.0952,0.1,0.1082,0.0876,0.0867,0.0869,0.0853,0.0834,0.1024,0.1024,0.1024,0.1024,0.0532,0.0531,0.0576,0.0626,0.0723,0.0812,0.1019,0.1062,0.1078,0.0984,0.0984,0.0917,0.0905,0.0902,0.0885,0.0862,0.106,0.1059,0.1059,0.0593,0.0591,0.0631,0.0657,0.0769,0.0932,0.1112,0.1081,0.0945,0.1045,0.0834,0.1057,0.096,0.094,0.093,0.0905,0.0867,0,0]}],[{"header":{"parameterUnit":"m.s-1","parameterCategory":2,"la1":30.2992,"la2":30.254,"lo1":-89.0895,"lo2":-89.0443,"dy":0.0025,"dx":0.0025,"nx":19,"ny":19,"refTime":"2026-05-09T21:00:00:Z","depth":"4","parameterNumber":2,"parameterNumberName":"U-component_of_CURRENTS"},"data":[0,0,0,0.0006,0.0007,0.0045,0.0045,0.0151,0.0152,0,0,0,0,0,0,0,0,0,0,0,-0.001,-0.0009,0.0006,0.0008,0.0045,0.0045,0.015,0.0152,0,0,0,0,0,0,0,0,0,0,0,-0.001,-0.0009,-0.0009,0.0008,0.0045,0.0045,0.015,0.0105,0,0,0,0,0,0,0,0,0,0,0.0061,0.0036,-0.0009,-0.0009,0.0008,0.0045,0.0045,0.0102,0.0108,0.0153,0,0.0163,0,0.0168,0.0161,0.0161,0,0,0,-0.0001,0.0031,0.005,-0.0009,0.0009,0.0045,0.0025,0.0105,0.0112,0.0161,0.0164,0.0168,0.017,0.0162,0.0163,0.034,0.0341,0,0,-0.0003,-0.001,0.0045,0.0054,0.0026,0.0024,0.0027,0.0108,0.0115,0.0165,0.017,0.0172,0.0163,0.0164,0.0339,0.034,0,0,0,-0.0003,-0.0011,0.0004,0.005,0.0056,0.0026,0.0028,0.0111,0.0119,0.0172,0.0173,0.0164,0.0165,0.0338,0.034,0.0451,0,0,0,-0.0005,-0.001,0.0003,-0.0001,0.0055,0.0076,0.0029,0.0113,0.0122,0.0172,0.0164,0.0167,0.0337,0.0339,0.0446,0.0463,0,0,0,-0.0013,-0.0011,-0.0003,-0.0002,0.002,0.0074,0.0085,0.0114,0.0124,0.0162,0.0167,0.0337,0.0339,0.0442,0.0456,0.0432,0,0,0,-0.0026,-0.0011,-0.0003,0.0016,0.002,0.0068,0.0084,0.0139,0.0175,0.0164,0.0337,0.034,0.044,0.0452,0.0429,0.0276,0,0,0,-0.0015,-0.001,0.0002,0.001,0.0051,0.0062,0.014,0.0203,0.0225,0.0311,0.0314,0.0448,0.0455,0.0431,0.0406,0,0,0,0,-0.0001,0.0011,0.0021,0.005,0.0084,0.015,0.0193,0.0254,0.0372,0.0258,0.0461,0.0461,0.0442,0.0346,0.035,0.035,0.035,0.0349,0.0349,0.0001,0.0024,0.0051,0.0085,0.0135,0.0234,0.0305,0.0402,0.0422,0.0509,0.0564,0.0635,0.0544,0.0592,0.0592,0.0593,0.0593,0.0594,0.0594,0.0023,0.0038,0.0091,0.0138,0.022,0.0326,0.047,0.0532,0.0648,0.0667,0.0643,0.0488,0.0605,0.0603,0.0601,0.06,0.0599,0.0598,0.0598,0.0016,0.0028,0.007,0.0162,0.0316,0.0444,0.0566,0.0697,0.0737,0.0768,0.0615,0.0675,0.0647,0.0763,0.0763,0.0763,0.0763,0.0763,0.0763,-0.0004,0.0032,0.0086,0.0208,0.0308,0.0474,0.0656,0.0638,0.0697,0.0696,0.0794,0.0689,0.0684,0.0654,0.0764,0.0764,0.0764,0.0764,0.0764,-0.0021,0.0006,0.0081,0.0154,0.0348,0.0441,0.0597,0.0555,0.0531,0.0461,0.062,0.0627,0.0545,0.0542,0.0505,0.0574,0.0572,0.057,0,-0.0037,-0.0021,0.0072,0.0168,0.0266,0.0418,0.038,0.0361,0.0391,0.0459,0.0452,0.0636,0.0641,0.0547,0.0541,0.0496,0,0,0,-0.0047,-0.0014,0.0033,0.0126,0.0239,0.03,0.0371,0.035,0.049,0.0299,0.0529,0.054,0.0466,0.0765,0.0654,0.0647,0.0593,0,0]},{"header":{"parameterUnit":"m.s-1","parameterCategory":2,"la1":30.2992,"la2":30.254,"lo1":-89.0895,"lo2":-89.0443,"dy":0.0025,"dx":0.0025,"nx":19,"ny":19,"refTime":"2026-05-09T21:00:00:Z","depth":"4","parameterNumber":3,"parameterNumberName":"V-component_of_CURRENTS"},"data":[0,0,0,0.0573,0.0574,0.0624,0.0624,0.063,0.063,0,0,0,0,0,0,0,0,0,0,0,0.0553,0.0554,0.0573,0.0575,0.0624,0.0624,0.063,0.063,0,0,0,0,0,0,0,0,0,0,0,0.0553,0.0554,0.0554,0.0575,0.0624,0.0624,0.063,0.0603,0,0,0,0,0,0,0,0,0,0,0.056,0.0561,0.0553,0.0554,0.0575,0.0624,0.0624,0.0602,0.0605,0.0596,0,0.0617,0,0.0631,0.0631,0.0631,0,0,0,0.0559,0.0559,0.0572,0.0555,0.0576,0.0624,0.0597,0.0604,0.0607,0.0599,0.0617,0.0618,0.0631,0.0631,0.0631,0.0565,0.0565,0,0,0.0556,0.0558,0.057,0.0574,0.0605,0.0596,0.0599,0.0606,0.0615,0.0617,0.0619,0.0632,0.0631,0.0631,0.0566,0.0565,0,0,0,0.0559,0.0556,0.057,0.0573,0.0591,0.0598,0.0601,0.0615,0.062,0.0619,0.0632,0.0631,0.0631,0.0567,0.0566,0.0593,0,0,0,0.0556,0.0559,0.0569,0.057,0.0592,0.0613,0.061,0.0619,0.0621,0.0632,0.0631,0.0631,0.0568,0.0566,0.0594,0.0617,0,0,0,0.0548,0.0558,0.0569,0.057,0.0599,0.0614,0.0619,0.0619,0.0629,0.0631,0.0631,0.0568,0.0567,0.0596,0.0618,0.0553,0,0,0,0.054,0.0556,0.0569,0.0585,0.0599,0.0608,0.0619,0.0642,0.0648,0.0631,0.0568,0.0566,0.0596,0.0618,0.0554,0.0518,0,0,0,0.0549,0.0557,0.0562,0.0575,0.0583,0.0599,0.059,0.0617,0.0605,0.0561,0.056,0.0594,0.0618,0.0553,0.0409,0,0,0,0,0.0555,0.0562,0.0564,0.0579,0.0588,0.0577,0.0599,0.059,0.0566,0.0603,0.0548,0.0561,0.052,0.0501,0.0557,0.0557,0.0557,0.0557,0.0558,0.0552,0.0557,0.0559,0.0558,0.0569,0.0572,0.055,0.0528,0.0548,0.0525,0.055,0.0476,0.0454,0.0504,0.0504,0.0504,0.0504,0.0504,0.0504,0.0554,0.0548,0.056,0.058,0.0568,0.0586,0.053,0.0531,0.0472,0.0502,0.046,0.049,0.0506,0.0505,0.0505,0.0505,0.0505,0.0505,0.0505,0.0541,0.0538,0.0569,0.0599,0.0642,0.0649,0.0599,0.0582,0.0506,0.0472,0.0422,0.0466,0.0501,0.046,0.046,0.046,0.046,0.046,0.0459,0.0521,0.0539,0.058,0.0639,0.0688,0.0715,0.0675,0.0546,0.0473,0.0435,0.0493,0.046,0.0461,0.0495,0.0456,0.0457,0.0457,0.0458,0.0458,0.0485,0.0526,0.058,0.0629,0.0702,0.0691,0.0687,0.0466,0.0336,0.021,0.037,0.0376,0.0352,0.0356,0.0386,0.0313,0.0313,0.0312,0,0.0462,0.0482,0.0564,0.0622,0.0606,0.0655,0.0472,0.0326,0.0231,0.0313,0.0237,0.0426,0.0428,0.0408,0.0409,0.0446,0,0,0,0.0429,0.0475,0.0508,0.0581,0.0576,0.0451,0.0405,0.0344,0.0373,0.0125,0.0296,0.0301,0.0226,0.0447,0.0423,0.0425,0.0476,0,0]}]]